Flag for U.S.A. Weather past 2 weeks in Overland Park, Kansas, U.S.A.

Now
69 °F

Clear.


Feels Like: 69 °F
Forecast: 63 / 83 °F
Wind: 5 mph from Southeast

Location: Johnson County Executive Airport

Current Time: Jul 31, 2014 at 11:43:04 PM

Latest Report: Jul 31, 2014 at 10:53 PM


Visibility: 10 mi

Pressure: 30.03 "Hg

Humidity: 73%

Dew point: 60 °F

Location of Overland ParkLocation

Historic Weather in Overland Park — Graph

°F

Overland Park temperature yesterday

Maximum temperature yesterday: 76 °F (at 3:53 PM)
Minimum temperature yesterday: 64 °F (at 11:53 PM)
Average temperature yesterday: 71 °F

Past Weeks' High & Low Weather Summary

 TemperatureHumidityPressure
High95 °F (Jul 25, 3:53 PM)100% (Jul 18, 6:53 AM)30.20 "Hg (Jul 18, 6:53 AM)
Low58 °F (Jul 17, 5:53 AM)29% (Jul 27, 4:53 PM)29.74 "Hg (Jul 25, 7:53 PM)
Average75 °F68%30.00 "Hg
* Reported Jul 16 10:53 PM — Jul 31 10:53 PM, Overland Park, Weather by CustomWeather, © 2014

Note: Actual official high and low records may vary slightly from our data, if they occured in-between our weather recording intervals... More about our weather records

Advertising

Overland Park weather history for previous 24 hours

 ConditionsComfort  
Time TempWeatherWind HumidityBarometerVisibility
10:53 PM
Jul 31
69 °FClear.5 mph73%30.03 "Hg10 mi
9:53 PM72 °FClear.5 mph64%30.02 "Hg10 mi
8:53 PM74 °FSunny.5 mph60%30.01 "Hg9 mi
7:53 PM77 °FSunny.6 mph50%30.01 "Hg10 mi
6:53 PM80 °FSunny.6 mph45%30.01 "Hg10 mi
5:53 PM82 °FSunny.5 mph41%30.02 "Hg10 mi
4:53 PM81 °FPassing clouds.6 mph42%30.03 "Hg10 mi
3:53 PM82 °FScattered clouds.6 mph40%30.04 "Hg10 mi
2:53 PM82 °FScattered clouds.3 mph40%30.05 "Hg10 mi
1:53 PM81 °FScattered clouds.5 mph41%30.06 "Hg10 mi
12:53 PM80 °FScattered clouds.5 mph42%30.08 "Hg10 mi
11:53 AM80 °FPartly sunny.6 mph42%30.09 "Hg10 mi
10:53 AM77 °FPassing clouds.5 mph48%30.09 "Hg10 mi
9:53 AM73 °FSunny.No wind64%30.09 "Hg10 mi
8:53 AM70 °FSunny.No wind71%30.09 "Hg10 mi
7:53 AM65 °FSunny.3 mph81%30.08 "Hg10 mi
6:53 AM63 °FClear.5 mph84%30.07 "Hg10 mi
5:53 AM61 °FClear.3 mph90%30.07 "Hg10 mi
4:53 AM63 °FClear.3 mph87%30.07 "Hg10 mi
3:53 AM63 °FClear.3 mph87%30.06 "Hg10 mi
2:53 AM63 °FClear.No wind87%30.07 "Hg10 mi
1:53 AM64 °FClear.No wind87%30.07 "Hg10 mi
12:53 AM62 °FClear.No wind93%30.08 "Hg10 mi
11:53 PM
Jul 30
64 °FClear.No wind90%30.08 "Hg10 mi
Weather by CustomWeather, © 2014

See weather overviewHow to use our weather pages